Location: Bush Observatory
(40.2653°N, 94.3194°W)
Time: 02:07:45
(UTC-05:00)

Daily predictions for brighter satellites

Satellite Brightness Start Highest point End
(mag) Time Altitude Azimuth Time Altitude Azimuth Time Altitude Azimuth
DELTA 2 DEB (DPAF) 4.2 00:08:06 67° WSW 00:08:16 68° WSW 00:12:44 10° NNW
ERBS 3.7 00:06:38 10° NW 00:08:46 36° NW 00:08:46 36° NW
Terra 3.3 00:10:53 24° WSW 00:11:54 26° W 00:15:54 10° NW
Cosmos 2034 Rocket 4.2 00:09:22 10° N 00:15:40 60° E 00:17:05 49° SE
Cosmos 1626 3.7 00:20:51 28° W 00:20:56 28° WNW 00:24:12 10° NNW
CZ-4C R/B 2.9 00:22:54 37° E 00:22:54 37° E 00:27:22 10° NE
ALOS 2 3.2 00:23:03 45° ENE 00:23:03 45° ENE 00:27:09 10° N
Cosmos 2263 Rocket 2.8 00:20:31 30° WSW 00:23:01 52° WNW 00:28:28 10° NNE
Cosmos 1891 Rocket 4.3 00:18:06 10° N 00:24:12 79° E 00:25:20 60° SSE
Cosmos 841 Rocket 4.4 00:24:49 10° NW 00:29:34 36° W 00:30:03 35° WSW
Sich 1 3.1 00:30:17 71° N 00:30:17 71° N 00:34:07 10° N
CZ-4C R/B 4.5 00:32:12 38° W 00:32:12 38° W 00:35:58 10° NNW
Cosmos 1869 3.8 00:28:54 10° N 00:32:05 56° NNW 00:32:05 56° NNW
Cosmos 1707 Rocket 3.8 00:32:31 10° NNW 00:36:41 64° WNW 00:36:41 64° WNW
Cosmos 783 Rocket 4.4 00:32:16 10° NNW 00:37:37 74° ENE 00:38:01 70° ESE
Cosmos 1400 Rocket 3.9 00:41:34 39° NE 00:41:34 39° NE 00:44:35 10° NNE
Cosmos 1464 Rocket 4.2 00:37:33 10° NNW 00:43:37 60° W 00:44:51 50° SW
Cosmos 1455 4.1 00:45:25 10° NW 00:47:56 22° WNW 00:47:56 22° WNW
Cosmos 1666 Rocket 4.2 00:51:48 49° WNW 00:51:48 49° WNW 00:56:04 10° N
Cosmos 1634 Rocket 4.5 00:48:54 10° N 00:54:51 47° ENE 00:56:07 42° ESE
Cosmos 1844 Rocket 2.6 00:57:52 66° ESE 00:57:56 66° ESE 01:03:28 10° NNE
Cosmos 1862 Rocket 3.9 00:56:12 10° N 01:00:01 59° NE 01:00:01 59° NE
Cosmos 1933 Rocket 3.9 01:01:51 60° NE 01:01:51 60° NE 01:05:32 10° NNE
Spot 2 4.4 00:58:17 10° NNE 01:02:40 68° ENE 01:02:40 68° ENE
In-Cosmos 22 Rocket 4.0 01:08:49 76° SE 01:09:05 79° E 01:14:40 10° NNE
Tsikada Rocket 4.1 01:08:12 54° SW 01:09:33 68° W 01:15:54 10° N
CZ-2C R/B 3.6 01:09:06 52° WSW 01:09:38 54° W 01:15:16 10° NNW
Cosmos 967 Rocket 4.4 01:03:44 10° NW 01:10:05 72° WSW 01:10:51 64° SSW
Lacrosse 5 4.1 01:07:40 10° W 01:08:49 13° W 01:08:49 13° W
Cosmos 1633 Rocket 4.1 01:10:53 36° WNW 01:10:53 36° WNW 01:14:45 10° N
Cosmos 1892 4.0 01:16:20 36° NE 01:16:20 36° NE 01:18:59 10° NNE
Cosmos 1703 Rocket 4.1 01:27:20 10° N 01:31:27 52° ENE 01:31:27 52° ENE
Cosmos 968 Rocket 4.3 01:33:50 39° W 01:34:42 42° WNW 01:39:43 10° N
CZ-2C R/B 3.8 01:31:27 10° N 01:36:05 31° WNW 01:37:21 28° W
Cosmos 489 Rocket 4.5 01:42:41 59° SW 01:43:55 78° WNW 01:50:19 10° NNE
H-2A R/B 3.3 01:39:47 10° NNE 01:43:43 46° E 01:43:43 46° E
Cosmos 2278 Rocket 2.2 01:45:15 64° SE 01:45:33 65° ESE 01:51:10 10° NNE
Meteor 1-26 Rocket 4.1 01:41:24 10° NNW 01:46:54 67° W 01:47:10 65° WSW
Cosmos 1844 3.9 01:49:47 53° WSW 01:50:41 61° WNW 01:56:16 10° NNE
Cosmos 1869 Rocket 3.8 01:54:19 67° NE 01:54:19 67° NE 01:58:11 10° N
Cosmos 1538 Rocket 4.4 01:48:37 10° NNW 01:53:38 51° W 01:53:38 51° W
Cosmos 1833 Rocket 4.4 01:49:54 10° N 01:54:45 29° ENE 01:58:54 13° ESE
SL-24 R/B - RUBIN 2 4.2 01:51:45 10° NW 01:56:28 56° W 01:56:28 56° W
Okean 1-7 3.3 01:54:12 10° N 01:58:09 66° NE 01:58:09 66° NE
COSMOS 2406 3.9 01:56:06 10° NW 02:01:04 39° W 02:01:04 39° W
Cosmos 1461 3.6 02:03:34 46° NE 02:03:34 46° NE 02:06:29 10° NE
Cosmos 923 Rocket 3.8 01:57:17 10° NNW 02:02:31 85° ENE 02:02:55 76° SE
CZ-4B R/B 3.3 02:05:33 27° NW 02:05:33 27° NW 02:07:26 10° NNW
Cosmos 2297 4.3 02:04:57 40° ESE 02:05:33 41° ESE 02:10:51 10° NE
Cosmos 2279 Rocket 3.9 02:01:26 10° N 02:07:41 79° W 02:08:54 60° SSW
Cosmos 1315 Rocket 4.5 02:10:29 25° WNW 02:10:29 25° WNW 02:13:14 10° NNW
CZ-4C R/B 3.5 02:08:02 22° W 02:10:37 33° NW 02:16:03 10° NNE
Landsat 5 4.3 02:12:56 42° WNW 02:12:56 42° WNW 02:16:10 10° NNW
Meteor 1-10 Rocket 4.3 02:06:27 10° N 02:12:14 75° E 02:13:33 55° SSE
Cosmos 1733 Rocket 4.0 02:19:01 38° E 02:19:13 38° E 02:23:17 10° NNE
BREEZE-M DEB (TANK) 4.4 02:18:10 39° SSE 02:19:48 45° ESE 02:37:52 10° NE
Cosmos 2082 Rocket 3.0 02:14:25 10° NNW 02:19:50 46° ENE 02:22:59 23° ESE
Cosmos 1862 4.1 02:20:10 44° E 02:20:10 44° E 02:23:49 10° NNE
Meteor 2-3 Rocket 4.4 02:19:12 38° WSW 02:20:17 42° WNW 02:25:47 10° N
Cosmos 1825 2.7 02:21:09 57° NNE 02:21:09 57° NNE 02:24:15 10° N
Cosmos 192 4.3 02:16:03 10° NNW 02:21:01 80° ENE 02:21:34 69° SE
PSLV R/B 3.5 02:17:58 10° NNE 02:22:20 87° ENE 02:22:20 87° ENE
Cosmos 1782 3.3 02:26:22 10° NNW 02:29:43 53° NW 02:29:43 53° NW
ATLAS 3B R/B 3.4 02:28:26 37° SSE 02:30:40 47° ESE 02:37:32 10° NE
Cosmos 44 3.4 02:32:00 56° ESE 02:32:00 56° ESE 02:36:24 10° NE
Cosmos 2112 Rocket 3.9 02:27:24 10° NNW 02:32:42 79° WSW 02:33:24 66° S
Cosmos 1408 3.4 02:34:05 46° NNW 02:34:05 46° NNW 02:36:50 10° N
Meteor 2-6 Rocket 4.2 02:34:46 10° NNW 02:40:17 69° W 02:41:19 56° SSW
Meteor 1-27 Rocket 3.8 02:35:18 10° N 02:41:16 79° E 02:43:19 43° SSE
Cosmos 44 Rocket 3.1 02:41:11 74° SSW 02:41:37 85° ESE 02:46:26 10° NNE
Cosmos 1680 Rocket 3.7 02:40:24 10° NNW 02:45:30 51° WSW 02:45:44 50° WSW
PSLV R/B 3.9 02:45:26 72° ESE 02:45:42 76° ENE 02:49:51 10° N
Helios 1A Rocket 2.8 02:43:15 10° NNE 02:47:24 88° W 02:47:25 87° WSW
Cosmos 1674 Rocket 4.0 02:45:28 10° N 02:49:52 58° E 02:50:50 46° SE
Cosmos 1937 Rocket 3.6 02:49:53 50° SSE 02:50:59 64° ESE 02:56:06 10° NNE
Aureole 1 Rocket 4.5 02:47:51 10° NNW 02:54:42 64° WSW 02:58:13 36° S
Resurs 1-4 Rocket 3.5 02:52:49 10° NE 02:57:30 30° E 03:00:04 21° SE
BREEZE M DEB (TANK) 3.5 02:59:11 35° NNW 02:59:11 35° NNW 03:01:10 10° NE
Cosmos 1908 Rocket 4.3 02:58:20 37° SE 02:59:27 46° E 03:03:42 10° NNE
BREEZE-M DEB (TANK) 3.9 03:04:04 18° E 03:04:04 18° E 03:05:46 10° ENE
Cosmos 1092 Rocket 4.0 03:01:33 43° SSW 03:03:45 75° W 03:10:03 10° N
Cosmos 1898 Rocket 3.5 03:03:10 50° SW 03:04:25 69° WNW 03:09:40 10° NNE
Meteor 2-20 4.4 03:02:17 43° SSW 03:04:25 78° W 03:10:37 10° N
Cosmos 990 Rocket 3.9 03:05:25 49° S 03:06:48 76° ESE 03:11:58 10° NNE
SeaSat 1 2.3 03:05:50 43° SSE 03:07:27 79° WSW 03:12:25 10° NNW
Cosmos 1607 4.2 03:08:10 36° WSW 03:10:40 61° NW 03:16:54 10° NNE
Cosmos 1378 Rocket 4.1 03:07:17 10° N 03:11:31 53° E 03:13:18 31° SE
IRS-1C 4.3 03:06:25 10° NNE 03:11:45 64° ESE 03:13:52 36° S
CZ-2D R/B 3.0 03:07:58 10° NNE 03:13:05 42° E 03:15:54 24° SSE
Cosmos 2026 Rocket 3.9 03:13:40 35° S 03:16:23 82° E 03:22:28 10° N
Cosmos 1340 2.9 03:14:33 10° NNW 03:18:02 51° W 03:18:02 51° W
ARIANE 5 R/B 3.4 03:13:41 10° NNE 03:18:23 40° E 03:20:57 23° SSE
SL-08 R/B 3.2 03:18:18 41° S 03:20:01 80° WSW 03:24:51 10° NNW
USA 238 DEB 3.8 03:18:44 34° SSW 03:21:58 73° ESE 03:28:57 10° NE
USA 238 3.8 03:18:50 34° SSW 03:22:05 73° ESE 03:29:03 10° NE
Cosmos 1782 Rocket 4.3 03:20:21 29° SSE 03:22:14 47° E 03:26:33 10° NNE
CBERS-1 4.0 03:20:43 10° N 03:25:51 73° WNW 03:27:44 39° SSW
IRS-1D 3.9 03:23:30 10° NNE 03:28:32 57° E 03:31:04 28° SSE
Cosmos 2278 Rocket 4.1 03:27:04 13° W 03:30:09 20° NW 03:34:12 10° N
CZ-3A R/B 4.3 03:31:03 19° S 03:32:11 20° SSE 03:43:31 10° SE
Cosmos 1943 Rocket 4.2 03:33:37 10° SSE 03:37:42 21° E 03:41:47 10° NE
COSMOS 2487 3.5 03:34:38 10° NW 03:37:16 31° W 03:37:16 31° W
NPP 4.0 03:33:20 10° N 03:38:34 53° WNW 03:40:50 31° SW
Cosmos 1833 Rocket 3.1 03:33:31 10° NW 03:38:47 41° WSW 03:40:32 33° SW
Cosmos 2369 Rocket 3.1 03:36:24 20° SSE 03:39:51 40° ESE 03:45:05 10° NE
GP-B 3.6 03:36:34 10° NNW 03:40:47 44° W 03:41:55 36° WSW
Cosmos 1655 Rocket 4.0 03:40:47 28° SSW 03:44:20 78° W 03:50:37 10° N
Cosmos 1437 3.1 03:41:18 10° N 03:44:30 60° E 03:45:48 31° SSE
UNK 3.7 03:42:47 24° S 03:45:34 85° WSW 03:50:17 10° NNW
Cosmos 405 Rocket 4.4 03:42:14 10° N 03:45:51 32° ENE 03:49:22 10° SE
CZ-3B DEB 4.0 03:33:51 10° NW 03:47:12 84° SW 03:58:03 10° SE
COSMOS 2455 4.4 03:44:20 11° SSE 03:48:57 28° ESE 03:53:57 10° NE
Cosmos 1812 2.6 03:47:42 10° N 03:51:35 87° E 03:53:35 27° S
SL-16 R/B 2.5 03:46:39 17° S 03:51:36 74° WSW 03:57:52 10° NNW
Cosmos 1975 Rocket 3.0 03:48:36 10° N 03:52:57 87° E 03:55:49 21° S
CBERS 1 LM4 rocket 4.3 03:48:59 10° NNE 03:53:58 81° WNW 03:56:35 28° SSW
Cosmos 1428 Rocket 4.5 03:50:55 25° SSW 03:54:38 72° W 04:00:53 10° N
USA 267 3.5 03:52:19 10° NE 03:58:49 62° SE 04:03:11 22° SSW
NOSS 3-2 (C) 4.0 03:57:46 19° S 04:01:50 50° ESE 04:08:04 10° NE
USA 161 4.2 04:00:53 10° ESE 04:02:18 15° ENE 04:03:48 10° NNE
NOSS 3-2 (A) 3.6 03:58:42 23° SSW 04:02:33 68° ESE 04:09:00 10° NE
Cosmos 2082 Rocket 3.3 03:59:11 10° NW 04:03:34 24° WSW 04:04:46 22° WSW
Meteor 1-25 Rocket 4.2 04:01:28 23° SSW 04:05:05 77° W 04:10:45 10° N
Cosmos 468 4.5 04:00:22 10° NNW 04:05:44 89° WSW 04:11:02 10° SSE
ADEOS Rocket 3.8 03:59:44 10° N 04:07:06 52° WNW 04:12:01 20° SW
Cosmos 158 Rocket 4.3 04:02:16 10° NNW 04:07:22 64° ENE 04:12:17 10° SSE
Cosmos 2344 3.7 04:05:50 19° SSW 04:11:34 77° ESE 04:19:57 10° NE
ASTRO E2 4.4 04:12:02 17° S 04:12:25 17° SSE 04:15:06 10° SE
Cosmos 2266 Rocket 4.1 04:13:52 13° S 04:19:46 89° E 04:26:12 10° N
CENTAUR R/B 4.4 04:16:12 10° SSE 04:20:38 22° ESE 04:25:25 10° ENE
BREEZE-M DEB (TANK) 2.6 04:15:14 10° WNW 04:20:44 76° SSW 04:23:31 10° ESE
ATLAS 3B R/B 3.6 04:15:40 15° WSW 04:21:29 41° NW 04:28:14 10° NNE
MOZ.5/SAFIR/RUBIN 5/SL-8 3.7 04:18:08 10° S 04:22:54 82° WSW 04:27:39 10° NNW
S3M 4.2 04:19:00 10° NNW 04:24:57 51° W 04:30:19 12° SSW
ADEOS 3.9 04:20:14 10° N 04:25:17 50° WNW 04:29:01 18° SW
Cosmos 1048 Rocket 4.0 04:22:13 10° NNW 04:27:38 82° WSW 04:32:59 10° SSE
GENESIS II 4.4 04:26:48 18° SSW 04:29:39 68° ESE 04:33:40 10° NE
Gbstr 26 Del rocket 3.3 04:27:41 19° SSW 04:30:00 42° SE 04:33:37 10° ENE
Cosmos 1633 2.6 04:29:00 19° SSW 04:31:30 62° W 04:35:07 10° N
Okean 1 3.5 04:29:41 10° NNW 04:33:40 52° W 04:37:20 12° S
Resurs 1-4 Rocket 3.1 04:32:33 10° N 04:37:17 33° WNW 04:41:09 14° SW
GRACE-1 4.0 04:38:43 18° SSW 04:40:31 52° W 04:43:11 10° N
GRACE-2 3.9 04:39:08 17° SSW 04:40:57 52° W 04:43:37 10° N
MOS 1 Rocket 3.9 04:37:26 10° N 04:42:41 54° WNW 04:47:20 12° SSW
Meteor 2-4 Rocket 4.3 04:38:21 10° N 04:43:56 59° ENE 04:49:20 10° SSE
Okean 1 Rocket 4.1 04:40:12 10° SSE 04:44:28 46° E 04:48:45 10° NNE
Okean 2 Rocket 4.2 04:42:49 15° SW 04:45:45 29° WNW 04:49:36 10° NNW
CZ-4B R/B 4.0 04:45:16 10° NNE 04:48:44 37° E 04:52:06 10° SSE
Meteor 1-13 Rocket 4.2 04:44:32 10° N 04:50:04 82° W 04:55:39 10° S
CZ-2D R/B 3.5 04:48:33 10° NNW 04:52:54 26° WNW 04:57:14 10° WSW
Cosmos 1441 Rocket 3.3 04:49:17 10° NNW 04:53:15 63° W 04:57:11 10° S
Meteor 1-11 Rocket 3.8 04:47:59 10° S 04:53:41 87° W 04:59:33 10° N
Cosmos 1125 Rocket 4.4 04:51:59 12° SW 04:56:26 36° WNW 05:01:17 10° N
ARIANE 5 R/B 3.9 04:53:22 10° NNW 04:57:15 23° WNW 05:01:07 10° WSW
CZ-2D R/B 4.3 04:53:31 10° N 04:57:37 39° WNW 05:01:45 10° SW
UNKNOWN OBJECT B 4.0 04:59:24 10° NNW 05:02:29 25° WNW 05:05:32 10° SW
Cosmos 1300 Rocket 3.6 05:00:07 10° SSW 05:04:32 71° W 05:09:00 10° N
H-2A R/B 3.6 04:49:23 10° WSW 05:10:40 46° S 05:15:12 10° ESE
Okean O Rocket 1.8 05:11:52 10° NNE 05:16:16 80° ESE 05:20:39 10° S
Centaur D AC-25 4.2 05:05:50 10° WSW 05:16:39 30° SSW 05:20:49 10° SE
PSLV R/B 3.3 05:13:47 10° WSW 05:17:03 63° SSE 05:20:20 10° E
Cosmos 1943 Rocket 2.5 05:15:29 10° SW 05:21:00 53° WNW 05:26:30 10° NNE
Cosmos 1745 Rocket 4.5 05:17:17 10° S 05:23:33 69° E 05:29:51 10° NNE
